Regional Weather Roundup
Issued by NWS State College, PA

Home | Current Version | Previous Version | Graphics & Text | Print | Product List | Glossary Off
Versions: 1 2 3 4 5 6 7 8 9 10 11 12 13 14 15 16 17 18 19 20 21 22 23 24 25 26 27 28 29 30 31 32 33 34 35 36 37 38 39 40 41 42 43 44 45 46 47 48 49 50

000
ASUS41 KCTP 191310
RWRCTP

REGIONAL WEATHER ROUNDUP
NATIONAL WEATHER SERVICE STATE COLLEGE PA
900 AM EDT SUN APR 19 2015

Note: "fair" indicates few or no clouds below 12,000 feet with no
significant weather and/or obstructions to visibility.

* = STATION THAT DOES NOT REPORT PRECIPITATION /E.G. RAIN...SNOW...ETC/
    THUNDER OR FOG.

PAZ002>004-007>009-013>016-020>023-029>032-191400-
WESTERN PENNSYLVANIA

CITY           SKY/WX    TMP DP  RH WIND       PRES   REMARKS
ERIE           PTSUNNY   51  25  36 E8        30.10F
MEADVILLE      PTSUNNY   53  23  31 E12G20    30.08F
FRANKLIN*      PTSUNNY   50  25  37 E14G22    30.11F
NEW CASTLE     FAIR      57  29  34 E13G18    30.06F
BEAVER COUNTY  SUNNY     55  30  38 E9G17     30.05
BUTLER*        PTSUNNY   55  27  33 E15G22    30.09S
PITTSBURGH INT PTSUNNY   57  32  38 E10       30.05F
PITTSBURGH     PTSUNNY   58  28  32 E8        30.05F
INDIANA*       SUNNY     57  27  30 SE12G21   30.14S
LATROBE        PTSUNNY   59  28  31 NE9       30.07F
WASHINGTON CO* MOSUNNY   61  37  41 E10       30.05F
$$

PAZ004>006-010>012-017>019-024>028-033>037-041-042-045-046-049>053-191400-
CENTRAL PENNSYLVANIA

CITY           SKY/WX    TMP DP  RH WIND       PRES   REMARKS
BRADFORD       PTSUNNY   45  23  42 SE17      30.16S
DUBOIS         PTSUNNY   53  23  31 E14G22    30.12F
CLEARFIELD     PTSUNNY   50  27  40 NE10      30.17S
JOHNSTOWN      PTSUNNY   52  24  33 SE7       30.12S
ALTOONA        PTSUNNY   54  28  36 E8        30.17R
STATE COLLEGE  SUNNY     52  28  40 NE6       30.18F
WILLIAMSPORT   PTSUNNY   50  30  46 CALM      30.22S
SELINSGROVE    PTSUNNY   54  32  43 NE6       30.21F
FT INDIANTOWN  CLOUDY    56  28  33 E10       30.20R
CAPITAL CITY   CLOUDY    57  29  34 E12       30.20R
HARRISBURG     CLOUDY    59  27  29 E9        30.19R
YORK           CLOUDY    57  31  37 E10       30.19R
$$

PAZ038>040-043-044-047-048-054-055-060>062-067>071-191400-
EASTERN PENNSYLVANIA

CITY           SKY/WX    TMP DP  RH WIND       PRES   REMARKS
SCRANTON       MOSUNNY   50  27  40 W5        30.22S
MOUNT POCONO   MOSUNNY   46  25  43 E12       30.21S
ALLENTOWN      MOSUNNY   55  29  36 E12       30.23S
QUAKERTOWN*    PTSUNNY   55  28  35 E12G20    30.23S
READING        PTSUNNY   57  24  28 E10G16    30.20S
LANCASTER      CLOUDY    55  29  36 E17G23    30.19R
COATESVILLE    CLOUDY    55  27  33 E16       30.21R
POTTSTOWN      PTSUNNY   55  29  36 E9        30.23S
BLUE BELL      PTSUNNY   57  36  44 E10       30.22S
DOYLESTOWN     PTSUNNY   53  31  42 VRB5      30.23R
WILLOW GROVE   NOT AVBL
NORTH PHILA    PTSUNNY   58  37  45 E14       30.24S
PHILADELPHIA   CLOUDY    57  39  51 E13       30.23R
$$



USA.gov is the U.S. government's official web portal to all federal, state and local government web resources and services.